Home > Time Zones > World Clock > Weather > Peru > Callao > Past weeks

Flag for Peru Weather past 2 weeks in Callao, Callao, Peru

Now
61 °F

Mostly cloudy.


Feels Like: 61 °F
Forecast: 60 / 68 °F
Wind: 2 mph from North

Location: Lima-Callao / Aerop. Internacional Jorgechavez

Current Time: Jul 24, 2014 at 6:16:42 AM

Latest Report: Jul 24, 2014 at 5:00 AM


Visibility: 6 mi

Pressure: 29.86 "Hg

Humidity: 88%

Dew point: 57 °F

Location of CallaoLocation

Historic Weather in Callao — Graph

°F

Callao temperature yesterday

Maximum temperature yesterday: 63 °F (at 1:00 PM)
Minimum temperature yesterday: 61 °F (at 12:00 AM)
Average temperature yesterday: 62 °F

Past Weeks' High & Low Weather Summary

 TemperatureHumidityPressure
High68 °F (Jul 21, 2:00 PM)94% (Jul 9, 8:00 AM)30.04 "Hg (Jul 9, 8:00 AM)
Low59 °F (Jul 22, 4:00 AM)68% (Jul 15, 7:00 PM)29.86 "Hg (Jul 10, 4:00 PM)
Average62 °F84%29.95 "Hg
* Reported Jul 9 5:00 AM — Jul 24 5:00 AM, Callao, Weather by CustomWeather, © 2014

Note: Actual official high and low records may vary slightly from our data, if they occured in-between our weather recording intervals... More about our weather records

Advertising

Callao weather history for previous 24 hours

 ConditionsComfort  
Time TempWeatherWind HumidityBarometerVisibility
5:00 AM
Jul 24
61 °FMostly cloudy.2 mph88%29.86 "Hg6 mi
4:00 AM61 °FOvercast.5 mph83%29.89 "Hg6 mi
3:00 AM61 °FOvercast.5 mph88%29.89 "Hg6 mi
2:00 AM61 °FOvercast.5 mph88%29.92 "Hg6 mi
1:00 AM61 °FOvercast.2 mph88%29.92 "HgN/A
12:00 AM61 °FOvercast.3 mph88%29.95 "HgN/A
11:00 PM
Jul 23
61 °FOvercast.3 mph83%29.95 "HgN/A
10:00 PM63 °FOvercast.5 mph83%29.95 "HgN/A
9:00 PM63 °FOvercast.7 mph77%29.98 "HgN/A
8:00 PM63 °FOvercast.6 mph77%29.95 "HgN/A
7:00 PM63 °FOvercast.7 mph77%29.95 "HgN/A
6:00 PM63 °FOvercast.5 mph77%29.92 "HgN/A
5:00 PM63 °FOvercast.2 mph77%29.92 "HgN/A
4:00 PM63 °FOvercast.3 mph77%29.92 "HgN/A
3:00 PM63 °FOvercast.2 mph77%29.92 "HgN/A
2:00 PM63 °FMore clouds than sun.7 mph77%29.95 "HgN/A
1:00 PM63 °FMore clouds than sun.10 mph77%29.98 "HgN/A
12:00 PM61 °FMostly cloudy.12 mph88%29.98 "HgN/A
11:00 AM61 °FMore clouds than sun.10 mph88%30.01 "HgN/A
10:00 AM61 °FDrizzle. Mostly cloudy.9 mph88%30.01 "Hg5 mi
9:00 AM61 °FDrizzle. More clouds than sun.10 mph94%30.01 "Hg5 mi
8:00 AM61 °FDrizzle. Mostly cloudy.12 mph94%30.01 "Hg4 mi
7:00 AM61 °FDrizzle. Fog.9 mph94%29.95 "Hg3 mi
6:00 AM61 °FDrizzle. Mostly cloudy.7 mph88%29.95 "Hg4 mi
Weather by CustomWeather, © 2014

See weather overviewHow to use our weather pages